Bennington, VT

3:04 AM EST on December 10, 2019 (GMT -0500)
Morse State

Weather History for KDDH - September, 2019

Change the Weather History Date:

Tuesday, September 10, 2019

  Actual Average Record
Temperature  
Mean Temperature 61 °F 61 °F  
Max Temperature 73 °F 73 °F 87 °F (2002)
Min Temperature 48 °F 50 °F 42 °F (2003)
Degree Days  
Heating Degree Days 4 5  
Month to date heating degree days 49 39  
Since 1 July heating degree days 84 111  
Cooling Degree Days 0 1  
Month to date cooling degree days 6 14  
Year to date cooling degree days 357 302  
Growing Degree Days 10 (Base 50)    
Moisture  
Dew Point 56 °F    
Average Humidity 80    
Maximum Humidity 93    
Minimum Humidity 66    
Precipitation  
Precipitation 0.00 in 0.11 in 1.12 in (2015)
Month to date precipitation 1.46 1.05  
Year to date precipitation 28.93 28.59  
Sea Level Pressure  
Sea Level Pressure 30.29 in    
Wind  
Wind Speed 4 mph (South)    
Max Wind Speed 15 mph    
Max Gust Speed 18 mph    
Visibility 10 miles    
Events      
T = Trace of Precipitation, MM = Missing Value Source: NWS Daily Summary

Daily Weather History Graph

Daily Weather History Graph

Search for Another Location

Airport or City:

Astronomy

Sep. 10, 2019 Rise Set
Actual Time 6:27 AM EDT 7:12 PM EDT
Civil Twilight 5:58 AM EDT 7:40 PM EDT
Nautical Twilight 5:24 AM EDT 8:14 PM EDT
Astronomical Twilight 4:48 AM EDT 8:49 PM EDT
Moon 5:52 PM EDT 2:44 AM EDT
Length of Visible Light 13h 42m
Length of Day
12h 45m
Waxing Gibbous, 89% of the Moon is Illuminated
Sep 10
Waxing Gibbous
Sep 14
Full
Sep 21
Last Quarter
Sep 28
New
Oct 5
First Quarter

Hourly Weather History & Observations

Time (EDT) Temp. Dew Point Humidity Pressure Visibility Wind Dir Wind Speed Gust Speed Precip Events Conditions
12:54 AM 54.0 °F 50.0 °F 86% 30.32 in 10.0 mi Calm Calm - N/A   Mostly Cloudy
1:54 AM 51.1 °F 48.9 °F 92% 30.33 in 10.0 mi South 3.5 mph - N/A   Scattered Clouds
2:54 AM 52.0 °F 48.9 °F 89% 30.33 in 10.0 mi Calm Calm - N/A   Mostly Cloudy
3:54 AM 51.1 °F 48.0 °F 89% 30.33 in 10.0 mi Calm Calm - N/A   Partly Cloudy
4:54 AM 50.0 °F 48.0 °F 93% 30.33 in 10.0 mi Calm Calm - N/A   Clear
5:54 AM 48.9 °F 46.9 °F 93% 30.35 in 10.0 mi Calm Calm - N/A   Clear
6:54 AM 48.0 °F 46.0 °F 93% 30.36 in 10.0 mi Calm Calm - N/A   Clear
7:19 AM 50.0 °F 48.0 °F 93% 30.37 in 10.0 mi Calm Calm - N/A   Mostly Cloudy
7:54 AM 54.0 °F 50.0 °F 86% 30.36 in 10.0 mi NNW 3.5 mph - N/A   Overcast
8:23 AM 57.0 °F 52.0 °F 83% 30.36 in 10.0 mi North 3.5 mph - N/A   Scattered Clouds
8:54 AM 60.1 °F 53.1 °F 78% 30.36 in 10.0 mi Calm Calm - N/A   Clear
9:54 AM 66.0 °F 55.0 °F 68% 30.35 in 10.0 mi Variable 3.5 mph - N/A   Clear
10:19 AM 66.9 °F 55.9 °F 68% 30.35 in 10.0 mi Variable 4.6 mph - N/A   Mostly Cloudy
10:37 AM 69.1 °F 57.0 °F 65% 30.35 in 10.0 mi South 8.1 mph - N/A   Scattered Clouds
10:54 AM 69.1 °F 57.0 °F 65% 30.35 in 10.0 mi South 8.1 mph - N/A   Clear
11:54 AM 71.1 °F 59.0 °F 66% 30.32 in 10.0 mi South 9.2 mph - N/A   Clear
12:54 PM 72.0 °F 59.0 °F 64% 30.30 in 10.0 mi South 11.5 mph - N/A   Scattered Clouds
1:54 PM 72.0 °F 60.1 °F 66% 30.30 in 10.0 mi South 11.5 mph - N/A   Overcast
2:54 PM 72.0 °F 61.0 °F 68% 30.28 in 10.0 mi SSE 9.2 mph - N/A   Overcast
3:15 PM 71.1 °F 61.0 °F 70% 30.27 in 10.0 mi South 11.5 mph - N/A   Overcast
3:37 PM 71.1 °F 61.0 °F 70% 30.27 in 10.0 mi South 9.2 mph 17.3 mph N/A   Mostly Cloudy
3:44 PM 71.1 °F 61.0 °F 70% 30.27 in 10.0 mi South 9.2 mph - N/A   Mostly Cloudy
3:54 PM 71.1 °F 61.0 °F 70% 30.26 in 10.0 mi SSW 8.1 mph - N/A   Overcast
4:54 PM 72.0 °F 62.1 °F 71% 30.25 in 10.0 mi South 6.9 mph 16.1 mph N/A   Scattered Clouds
5:34 PM 72.0 °F 61.0 °F 68% 30.25 in 10.0 mi South 6.9 mph - N/A   Mostly Cloudy
5:54 PM 72.0 °F 61.0 °F 68% 30.25 in 10.0 mi South 5.8 mph - N/A   Mostly Cloudy
6:54 PM 71.1 °F 61.0 °F 70% 30.23 in 10.0 mi ESE 4.6 mph - N/A   Overcast
7:54 PM 69.1 °F 61.0 °F 75% 30.23 in 10.0 mi Calm Calm - N/A   Mostly Cloudy
8:54 PM 70.0 °F 61.0 °F 73% 30.23 in 10.0 mi Variable 3.5 mph - N/A   Mostly Cloudy
9:54 PM 69.1 °F 61.0 °F 75% 30.19 in 10.0 mi Calm Calm - N/A   Mostly Cloudy
10:54 PM 70.0 °F 62.1 °F 76% 30.18 in 10.0 mi South 4.6 mph - N/A   Overcast
11:54 PM 70.0 °F 62.1 °F 76% 30.16 in 10.0 mi South 6.9 mph - N/A   Overcast